Hourly Data Report for June 13, 2017

BORDEN AWOS
ONTARIO

44°16'20.000" N
79°54'42.000" W
222.50 m
611B002
71534
YBN

Download Data

Hourly Data (June 2017)
Hourly Data Report for June 13, 2017
TIME
LST
Temp Definition
°C
Dew Point Definition
°C
Rel Hum Definition
%
Precip. Amount Definition
mm

Wind Dir Definition
10's deg

Wind Spd Definition
km/h
Visibility Definition
km
Stn Press Definition
kPa
Hmdx Definition


Wind Chill Definition


Weather Definition


00:00 21.6 18.4 82   31 4 14.5 98.74 28   LegendNANA
01:00 21.6 18.7 84   30 7 14.5 98.68 28   LegendNANA
02:00 20.0 18.2 89     0 14.5 98.72 26   LegendNANA
03:00 20.8 16.4 76   31 4 14.5 98.77 26   LegendNANA
04:00 18.8 11.3 62   34 13 14.5 98.98     LegendNANA
05:00 16.8 12.1 74   19 4 14.5 98.76     LegendNANA
06:00 17.3 12.7 74   31 7 14.5 98.88     LegendNANA
07:00 15.1 14.6 97   24 7 14.5 98.85     LegendNANA
08:00 15.8 15.3 97   30 6 14.5 98.98     LegendNANA
09:00
10:00 15.0 14.9 99   2 4 9.7 99.04     Moderate Rain
11:00 15.2 15.0 99   2 7 14.5 99.03     Rain
12:00 15.3 15.0 98   36 9 9.7 99.13     Rain
13:00 16.1 15.8 98     0 14.5 99.07     Rain
14:00 18.4 17.6 95   28 9 14.5 99.05     LegendNANA
15:00 20.3 18.5 89   6 9 14.5 99.01 27   LegendNANA
16:00 22.4 19.2 82     0 14.5 98.98 29   LegendNANA
17:00 22.8 17.5 72   33 11 14.5 98.97 28   LegendNANA
18:00 22.8 17.4 72   31 6 14.5 98.95 28   LegendNANA
19:00 20.3 16.3 78   34 7 14.5 99.01 25   LegendNANA
20:00 17.4 15.7 90   36 7 14.5 99.06     LegendNANA
21:00 15.9 15.0 94   2 4 14.5 99.09     LegendNANA
22:00 13.5 13.4 99     0 0.3 99.12     LegendNANA
23:00 12.4 12.1 98     0 0.8 99.11     LegendNANA

Notes on Data Quality.

Legend

  • E = Estimated
  • M = Missing
  • NA = Not Available*
  • [empty] = Indicates an unobserved value
Date modified: